Regional Weather Roundup
Issued by NWS Bismarck, ND

Home | Current Version | Previous Version | Text Only | Print | Product List | Glossary On
Versions: 1 2 3 4 5 6 7 8 9 10 11 12 13 14 15 16 17 18 19 20 21 22 23 24 25 26 27 28 29 30 31 32 33 34 35 36 37 38 39 40 41 42 43 44 45 46 47 48 49 50
000
ASUS43 KBIS 230210
RWRBIS

NWR BROADCAST TEXT
NATIONAL WEATHER SERVICE BISMARCK ND
900 PM CDT SUN APR 22 2018

NOTE: "FAIR" INDICATES FEW OR NO CLOUDS BELOW 12,000 FEET WITH NO
SIGNIFICANT WEATHER AND/OR OBSTRUCTIONS TO VISIBILITY.


CITY           SKY/WX    TMP DP  RH WIND       PRES   REMARKS
WILLISTON      PTCLDY    55  27  34 NW12      30.10R
MINOT          CLEAR     57  33  40 S5        30.08R
MINOT AFB      NOT AVBL
BISMARCK       CLOUDY    62  38  40 VRB3G22   30.09R
DICKINSON      PTCLDY    55  25  31 NE6       30.08R
GARRISON         N/A     49  35  58 SE5       30.09S
HETTINGER ARPT CLEAR     57  31  37 N9        30.08R
JAMESTOWN      CLEAR     52  40  63 S10       30.10R
CARRINGTON     FAIR      57  45  62 N3        30.11R
LINTON           N/A    N/A N/A N/A S13       30.11S
OAKES            N/A     52  36  54 S12       30.16S
TIOGA          FAIR      54  30  40 W12       30.10R
$$

CITY           SKY/WX    TMP DP  RH WIND       PRES   REMARKS
GRAND FORKS    CLOUDY    54  46  74 S10       30.09F
GRAND FORKS AF CLOUDY    56  44  64 S10       30.09S
DEVILS LAKE    CLOUDY    55  41  59 E3        30.10R
FARGO          FAIR      56  41  57 S14G23    30.15S
CANDO          FAIR      50  37  62 SE6       30.11S
CAVALIER         N/A     55  41  58 W5        30.07F
GWINNER          N/A     50  41  71 S9        30.16S
ROLLA          FAIR      48  39  71 SW8       30.08S
WALHALLA       FAIR      57  39  51 CALM      30.07S
$$

CITY           SKY/WX    TMP DP  RH WIND       PRES   REMARKS
ABERDEEN       CLEAR     51  35  54 S9        30.17R
MOBRIDGE       CLEAR     53  39  59 SE8       30.09R
BUFFALO          N/A     57  34  41 NE12      30.01R
RAPID CITY     CLEAR     52  39  61 E8        30.07R
GLASGOW        PTCLDY    57  27  31 N9        30.10R
SIDNEY         PTCLDY    55  28  35 NW10      30.10R
WOLF POINT     PTCLDY    57  29  34 N6        30.11R
GLENDIVE       PTCLDY    53  32  44 N10       30.10R
MILES CITY     PTCLDY    57  32  38 NE9       30.07S
BAKER          PTCLDY    55  35  47 NE7       30.09R
$$

CITY           SKY/WX    TMP DP  RH WIND       PRES   REMARKS
BILLINGS       MOCLDY    59  30  33 NE16      30.03S
GREAT FALLS    MOCLDY    50  19  29 NE13      30.13R
REGINA         PTCLDY    48  30  49 W12       30.10R
ESTEVAN        PTCLDY    52  27  37 NW8       30.08R
$$





USA.gov is the U.S. government's official web portal to all federal, state and local government web resources and services.